Retour au catalogue

CZ-4C DEB

ActifLEO
NORAD 43420·DEBRIS·🇨🇳 China

Lancé Dec 10, 2014 depuis Jiuquan Satellite Launch Center

Loading…

Prochains Passages (prochaines 24 heures)

TLE

FraisSource: Space-Track

Époque: Sep 13, 2026, 09:51 UTC

1 43420U 14080J   26256.41067047  .00000964  00000-0  99697-3 0  9998
2 43420  63.3848  42.0197 0370580  12.0832 348.8792 13.54482821566960

Suivez CZ-4C DEB en temps réel avec AllMySat

Download on the App Store